Location: Gebenbach
(49.5378°N, 11.8735°E)
Time: 03:24:58
(UTC+00:00)

SKYMED 3 - Pass Details

Date: 29 October 2020
Orbit: 621 x 623 km, 97.9° (Epoch: 27 November)

Event Time Altitude Azimuth Distance (km) Brightness Sun altitude
Rises 17:24:36 0° 14° (NNE) 2,917 7.8 -15.0°
Reaches altitude 10° 17:26:48 10° 15° (NNE) 2,005 7.0 -15.4°
Maximum altitude 17:31:11 82° 105° (ESE) 635 4.5 -16.1°
Drops below altitude 10° 17:35:30 10° 192° (SSW) 1,988 7.3 -16.8°
Sets 17:37:41 0° 193° (SSW) 2,889 8.2 -17.1°
